Погода в Лозовом

Украина / Хмельницкая область     49°17′37″N   27°18′04″E
темп.,
°C
ветер,
м/с
пор.,
м/с
влажн.,
%
обл.,
%
осадки,
мм/ч
давл.,
гПа
погр.,
м
6 августа, пт
пт600:00+19ююз359175 4.4 1004103
03:00+18ю51091100 4.4 1003244
06:00+17ю489697 0.8 1002228
09:00+20ю589185 1.4 1002495
12:00+25юз465516 0.1 10021531
15:00+23з6860100 0.2 1002601
18:00+21зсз5769100 0.8 1004535
21:00+17сз498077 2.1 1006274
7 августа, сб
сб700:00+14зсз49885 0.0 1008235
03:00+12з24940 0.0 100986
06:00+12з22930 0.0 101031
09:00+18з24685 0.0 1011385
12:00+23зсз46504 0.0 10111668
15:00+23зюз3554100 0.0 1011695
18:00+24зюз14521 0.0 1012893
21:00+19с22700 0.0 101311
8 августа, вс
вс800:00+17юв11740 0.0 101511
03:00+16ю22755 0.0 101514
06:00+15ююв33765 0.0 101525
09:00+21ююв466026 0.0 1015313
12:00+26ю67470 0.0 10151069
15:00+28ю553890 0.0 10151384
18:00+28ю45425 0.0 10151003
21:00+22ююв35584 0.0 101552
9 августа, пн
пн900:00+20ююв47614 0.0 101692
03:00+18ююв38665 0.0 1017123
06:00+17ююв356732 0.0 101774
09:00+22ссз115632 0.0 1018244
12:00+27в224287 0.0 1018653
15:00+25с2257100 0.0 1018323
18:00+26с43545 0.0 10181062
21:00+21ссв487352 0.0 1019178
10 августа, вт
вт1000:00+19ссв22866 2.0 101915
03:00+17сз239466 3.4 101941
06:00+16ссв37944 0.0 1019130
09:00+20ссв357731 0.0 1018341
12:00+25св3357100 0.0 10181129
15:00+27ссв325067 0.0 10161660
18:00+24с4760100 0.1 1016267
21:00+21ссв36647 0.1 1016118